Regional Weather Roundup
Issued by NWS

Home | Current Version | Previous Version | Text Only | Print | Product List | Glossary On
Versions: 1 2 3 4 5 6 7 8 9 10 11 12 13 14 15 16 17 18 19 20 21 22 23 24 25 26 27 28 29 30 31 32 33 34 35 36 37 38 39 40 41 42 43 44 45 46 47 48 49 50
000
ASUS44 KFWD 311903
RWRTX
NORTH TEXAS HOURLY WEATHER ROUNDUP
NATIONAL WEATHER SERVICE FORT WORTH TX
200 PM CDT MON AUG 31 2015

NOTE: "FAIR" INDICATES FEW OR NO CLOUDS BELOW 12,000 FEET WITH NO
SIGNIFICANT WEATHER AND/OR OBSTRUCTIONS TO VISIBILITY.

TXZ118-119-312000-
DALLAS/FORT WORTH METROPLEX

CITY           SKY/WX    TMP DP  RH WIND       PRES   REMARKS
DFW AIRPORT    MOSUNNY   93  60  33 SE9       30.00F HX  93
DALLAS LOVE    MOSUNNY   92  62  36 SE6G17    30.00F HX  92
FTW MEACHAM    SUNNY     93  62  35 SE8       30.00F HX  93
DAL-EXECUTIVE  MOSUNNY   93  61  34 E8        30.01F HX  93
FTW-ALLIANCE   MOSUNNY   94  62  34 S7        30.00F HX  94
FTW-NAS-JRB    MOSUNNY   94  64  37 S6        30.00F HX  95
FTW-SPINKS     MOSUNNY   93  63  36 SE9       30.02F HX  94
ARLINGTON      SUNNY     93  60  33 SE8       30.01F HX  93
GRAND PRAIRIE  SUNNY     91  64  40 S12       30.02F HX  93
ADDISON        MOSUNNY   91  59  33 SE10      30.02F HX  90
MESQUITE       SUNNY     91  61  35 S7G16     30.02F HX  91
LANCASTER      MOSUNNY   92  59  33 S6        30.02F HX  91
$$

TXZ091>094-102>105-117-120-121-131>134-312000-
NORTH CENTRAL TEXAS

CITY           SKY/WX    TMP DP  RH WIND       PRES   REMARKS
SHRMAN/DENISON SUNNY     93  63  36 S9        30.02F HX  94
BOWIE          SUNNY     92  61  36 SE7G17    30.01F HX  91
BRIDGEPORT     SUNNY     93  65  40 S10       30.02F HX  95
DENTON         MOSUNNY   92  63  38 SE16G22   30.00F HX  93
MCKINNEY       SUNNY     91  64  40 SE10      30.01F HX  92
ROCKWALL       MOSUNNY   91  64  41 S8        30.01F HX  92
TERRELL        MOSUNNY   90  64  42 SE8G16    30.02F HX  91
WAXAHACHIE     MOSUNNY   91  65  41 SW5       30.03S HX  93
CLEBURNE         N/A     90  64  43 SE9       30.04S HX  91
$$

TXZ083>090-098>101-113>116-127>130-139>142-154-155-312000-
WESTERN NORTH TEXAS

CITY           SKY/WX    TMP DP  RH WIND       PRES   REMARKS
WICHITA FALLS  SUNNY     94  60  32 S12G22    29.98F HX  94
WF-KICKAPOO    SUNNY     94  57  28 SE10G17   29.99F HX  93
VERNON         SUNNY     95  46  18 S12G17    29.99F HX  91
ABILENE        MOSUNNY   91  60  35 S7G21     30.02F HX  90
ABILENE-DYESS  MOSUNNY   92  61  35 S9        30.01F HX  92
BRECKENRIDGE   SUNNY     94  58  29 SE14G21   30.00F HX  93
MINERAL WELLS  MOSUNNY   92  66  42 E9        29.99F HX  94
STEPHENVILLE   SUNNY     89  64  42 CALM      30.06F HX  91
COMANCHE       SUNNY     91  62  37 S5        30.02F HX  92
COLEMAN        MOSUNNY   91  62  36 SE8       30.03F HX  91
BRADY          MOSUNNY   91  61  35 E9        30.03F HX  91
$$

TXZ143>147-156>162-174-175-312000-
CENTRAL TEXAS

CITY           SKY/WX    TMP DP  RH WIND       PRES   REMARKS
WACO           MOSUNNY   92  66  42 VRB6      30.02F HX  94
WACO-MCGREGOR  SUNNY     91  67  44 SE10      30.02S HX  94
CORSICANA      MOSUNNY   91  65  41 VRB7      30.03F HX  93
MEXIA          MOSUNNY   90  65  44 SE18      30.02F HX  92
HEARNE         SUNNY     93  66  40 SE6       30.02F HX  95
TEMPLE         SUNNY     90  64  43 S14       30.03S HX  91
KILLEEN        MOSUNNY   91  63  39 SE12G17   30.02F HX  92
KILLEEN-SKYLRK MOSUNNY   90  66  45 SE12      30.02F HX  92
FORT HOOD      MOSUNNY   90  64  41 SE10      30.01F HX  91
GATESVILLE     MOSUNNY   90  63  40 SE5       30.04S HX  90
HAMILTON       PTSUNNY   92  60  33 SE5       30.04F HX  91
LAMPASAS       SUNNY     91  65  42 CALM      30.02F HX  93
$$

TXZ095>097-106>112-122>126-135>138-148>153-164>167-312000-
EAST TEXAS

CITY           SKY/WX    TMP DP  RH WIND       PRES   REMARKS
PARIS          SUNNY     91  63  38 SE13      30.03F HX  92
MINEOLA        MOSUNNY   90  61  37 S9        30.05S
TYLER          MOSUNNY   89  65  44 VRB3      30.04F HX  91
LONGVIEW       MOSUNNY   89  68  49 S7        30.04F HX  93
MARSHALL       MOSUNNY   89  68  50 CALM      30.06F HX  92
ATHENS         MOSUNNY   88  64  45 CALM      30.02F
PALESTINE      MOSUNNY   88  66  46 CALM      30.05S HX  90
JACKSONVILLE   PTSUNNY   90  57  32 CALM      30.07S
HENDERSON      MOSUNNY   88  65  46 SE3       30.06S HX  90
CENTER         FAIR      90  64  42 S3        30.04F HX  91
NACOGDOCHES    MOSUNNY   90  63  40 SE5       30.03F HX  90
LUFKIN         MOSUNNY   91  62  37 S7        30.03F HX  91
$$

SUPPLEMENTAL OBSERVATIONS (CENTRAL)

CITY           SKY/WX    TMP DP  RH WIND       PRES   REMARKS
$$

SUPPLEMENTAL OBSERVATIONS (WEST)

CITY           SKY/WX    TMP DP  RH WIND       PRES   REMARKS
$$

SUPPLEMENTAL OBSERVATIONS (EAST)

CITY           SKY/WX    TMP DP  RH WIND       PRES   REMARKS
$$

SUPPLEMENTAL OBSERVATIONS ARE A COLLECTION OF AUTOMATED INSTRUMENTS
THAT ARE MAINTAINED BY A VARIETY OF FEDERAL AND STATE AGENCIES.
CERTAIN ELEMENTS...SUCH AS HUMIDITY VALUES AND SUSTAINED WIND
SPEEDS...MAY BE APPROXIMATED.




USA.gov is the U.S. government's official web portal to all federal, state and local government web resources and services.